Location: Maccacari
(45.1333°N, 11.1333°E)
Time: 14:33:14
(UTC+00:00)

S-56A Canister/Altair - Pass Details

Date: 30 January 2021
Orbit: 631 x 2501 km, 38.9° (Epoch: 01 March)

Event Time Altitude Azimuth Distance (km) Brightness Sun altitude
Rises 21:12:09 0° 195° (SSW) 4,334 - -50.3°
Reaches altitude 10° 21:19:01 10° 155° (SSE) 2,782 - -51.3°
Maximum altitude 21:19:35 10° 150° (SSE) 2,728 - -51.3°
Drops below altitude 10° 21:20:08 10° 145° (SE) 2,692 - -51.4°
Sets 21:25:28 0° 101° (E) 3,242 - -52.2°
